[[{"header":{"parameterUnit":"m.s-1","parameterCategory":1,"la1":30.2991,"la2":30.254,"lo1":-89.0895,"lo2":-89.0444,"dy":0.0017,"dx":0.0017,"nx":28,"ny":28,"refTime":"2025-12-05T09:00:00:Z","depth":0,"parameterNumber":2,"parameterNumberName":"U-component_of_WINDS"},"data":[0,0,0,0,0,0,0,0,0,0,0,0,0,0,0,0,0,0,0,0,0,0,0,0,0,0,0,0,0,0,0,0,0,0,0,0,0,0,0,0,0,0,0,0,0,0,0,0,0,0,0,0,0,0,0,0,0,0,-0.5499,-0.5499,0,-0.5579,-0.558,-0.5581,-0.5581,-0.558,-0.5579,-0.5578,-0.5661,-0.5664,-0.5667,0,0,0,0,0,0,0,0,0,0,0,0,0,-0.5346,-0.5349,-0.5498,-0.55,-0.5501,-0.5579,-0.558,-0.5581,-0.5581,-0.558,-0.5579,-0.5578,-0.566,-0.5664,-0.5667,0,0,0,0,0,0,0,0,0,0,0,0,0,-0.5418,-0.5349,-0.5498,-0.551,-0.5512,-0.5579,-0.558,-0.5581,-0.5582,-0.558,-0.5578,-0.5577,-0.5659,-0.5663,-0.5668,-0.5728,0,0,-0.5683,-0.5685,0,0,0,0,0,0,0,0,-0.5414,-0.5423,-0.5507,-0.5509,-0.5512,-0.5568,-0.5556,-0.5631,-0.5582,-0.5555,-0.5578,-0.5576,-0.5631,-0.5638,-0.5657,-0.5732,-0.5736,-0.5683,-0.5686,-0.5688,-0.5689,0,0,0,0,0,0,0,-0.5409,-0.542,-0.553,-0.5509,-0.5511,-0.5512,-0.552,-0.557,-0.5601,-0.5557,-0.5558,-0.5567,-0.5632,-0.5652,-0.5659,-0.5737,-0.5683,-0.5687,-0.569,-0.5692,-0.5866,-0.5868,0,0,0,0,0,0,-0.5401,-0.5416,-0.5528,-0.5533,-0.5458,-0.5516,-0.5525,-0.5552,-0.5601,-0.5606,-0.5568,-0.5567,-0.5645,-0.5653,-0.5662,-0.5736,-0.5688,-0.5692,-0.5695,-0.5865,-0.5867,-0.5869,0,0,0,0,0,0,-0.5398,-0.5411,-0.5525,-0.5474,-0.5489,-0.552,-0.555,-0.5554,-0.5574,-0.5609,-0.5614,-0.5583,-0.5644,-0.5655,-0.5712,-0.5739,-0.5694,-0.5699,-0.5862,-0.5865,-0.5868,-0.5885,0,0,0,0,0,0,-0.5394,-0.541,-0.5433,-0.5475,-0.5491,-0.5573,-0.5551,-0.5557,-0.5582,-0.5581,-0.5624,-0.563,-0.5644,-0.5705,-0.5717,-0.5745,-0.5702,-0.586,-0.5864,-0.5867,-0.5882,-0.5887,-0.5892,0,0,0,0,0,-0.5388,-0.5435,-0.5434,-0.5448,-0.5521,-0.5575,-0.5584,-0.5599,-0.5584,-0.5608,-0.563,-0.5628,-0.5734,-0.5711,-0.5724,-0.5754,-0.5859,-0.5863,-0.5867,-0.5879,-0.5886,-0.5892,0,0,0,0,0,0,-0.5396,-0.5441,-0.544,-0.5502,-0.5535,-0.5575,-0.5605,-0.5606,-0.5644,-0.5641,-0.5658,-0.5668,-0.5724,-0.5745,-0.5718,-0.5815,-0.5794,-0.5801,-0.58,-0.5806,-0.5812,-0.5806,-0.5706,0,0,0,0,0,-0.5405,-0.5444,-0.5481,-0.5532,-0.5548,-0.5574,-0.5598,-0.5607,-0.5641,-0.5655,-0.5681,-0.5715,-0.5756,-0.5782,-0.5821,-0.5884,-0.5894,-0.5912,-0.5917,-0.5921,-0.5927,-0.5962,-0.597,-0.5882,-0.5882,-0.5882,0,0,-0.5423,-0.5453,-0.5477,-0.5534,-0.5561,-0.5602,-0.5586,-0.5629,-0.566,-0.5662,-0.5717,-0.5737,-0.5776,-0.5836,-0.5864,-0.5855,-0.5953,-0.5926,-0.5929,-0.5933,-0.5967,-0.5975,-0.5983,-0.5884,-0.5884,-0.5884,0,0,-0.5478,-0.5505,-0.555,-0.5576,-0.5616,-0.5633,-0.5644,-0.5684,-0.5697,-0.5753,-0.5755,-0.5792,-0.5861,-0.5889,-0.5912,-0.5977,-0.5977,-0.599,-0.6018,-0.6052,-0.6059,-0.6065,-0.6089,-0.6097,-0.5995,-0.5995,-0.5995,0,-0.5497,-0.5558,-0.5573,-0.5617,-0.5643,-0.5645,-0.5692,-0.5717,-0.5767,-0.5785,-0.5774,-0.5861,-0.5888,-0.5954,-0.597,-0.5989,-0.6002,-0.5985,-0.6056,-0.6063,-0.6069,-0.6092,-0.61,-0.5997,-0.5997,-0.5996,-0.5996,0,-0.5579,-0.5622,-0.5654,-0.5702,-0.5731,-0.5776,-0.5798,-0.5825,-0.5831,-0.5849,-0.5906,-0.5937,-0.5983,-0.6,-0.6006,-0.6068,-0.6061,-0.6053,-0.6033,-0.6078,-0.61,-0.6109,-0.5999,-0.5998,-0.5998,-0.5997,0,0,-0.5642,-0.5698,-0.5709,-0.5732,-0.5776,-0.5809,-0.5854,-0.5899,-0.5922,-0.5957,-0.5995,-0.6054,-0.6047,-0.6073,-0.6083,-0.6113,-0.6163,-0.6101,-0.6102,-0.6112,-0.6233,-0.6238,-0.6248,-0.6162,-0.6164,-0.6166,-0.6229,0,-0.5702,-0.5782,-0.5796,-0.5866,-0.5906,-0.5909,-0.5948,-0.598,-0.5998,-0.6034,-0.6054,-0.6095,-0.6083,-0.6099,-0.6128,-0.615,-0.6187,-0.6146,-0.6199,-0.62,-0.6189,-0.626,-0.6266,-0.6325,-0.6238,-0.6239,-0.624,0,-0.5783,-0.582,-0.5893,-0.5932,-0.5949,-0.5984,-0.6026,-0.6061,-0.6097,-0.6108,-0.6137,-0.6143,-0.619,-0.6167,-0.6233,-0.6204,-0.6227,-0.6241,-0.6243,-0.6249,-0.6223,-0.6268,-0.6344,-0.6353,-0.6254,-0.6253,-0.6252,0,-0.5821,-0.5889,-0.5942,-0.5961,-0.6008,-0.6032,-0.6053,-0.6087,-0.6113,-0.615,-0.6167,-0.6208,-0.6231,-0.6264,-0.6281,-0.6263,-0.6345,-0.6324,-0.6356,-0.6355,-0.6373,-0.6372,-0.6454,-0.6387,-0.6387,-0.6387,-0.6386,0,-0.5887,-0.5932,-0.596,-0.5993,-0.6044,-0.606,-0.6109,-0.6129,-0.616,-0.6196,-0.6202,-0.6236,-0.6257,-0.6294,-0.6308,-0.636,-0.637,-0.638,-0.6384,-0.638,-0.6379,-0.6395,-0.6392,-0.6389,-0.6388,-0.6388,-0.6388,0,-0.5939,-0.596,-0.6018,-0.6057,-0.6068,-0.6103,-0.6137,-0.6169,-0.6186,-0.6233,-0.6245,-0.6272,-0.6317,-0.6337,-0.6392,-0.6401,-0.646,-0.646,-0.6448,-0.6449,-0.648,-0.6477,-0.6577,-0.659,-0.6513,-0.6514,-0.6515,0,-0.598,-0.6015,-0.6058,-0.6083,-0.6104,-0.6144,-0.617,-0.6187,-0.6215,-0.6258,-0.6284,-0.6329,-0.6365,-0.6436,-0.6461,-0.6503,-0.6504,-0.6536,-0.6511,-0.6506,-0.6505,-0.6503,-0.6507,-0.6541,-0.6542,-0.6542,-0.6543,0,-0.6051,-0.6059,-0.6097,-0.6138,-0.617,-0.6203,-0.6236,-0.6256,-0.6278,-0.6309,-0.6354,-0.6382,-0.6438,-0.6482,-0.6526,-0.6547,-0.6549,-0.6551,-0.656,-0.6557,-0.6549,-0.6554,-0.6461,-0.6549,-0.6548,-0.6548,-0.6547,-0.6547,-0.6099,-0.613,-0.6165,-0.6207,-0.6233,-0.6264,-0.6296,-0.6317,-0.6355,-0.6402,-0.6409,-0.6458,-0.6492,-0.6551,-0.6574,-0.6612,-0.6604,-0.6618,-0.6622,-0.6625,-0.6627,-0.6543,-0.662,-0.662,-0.662,-0.662,-0.662,0,-0.6169,-0.6192,-0.623,-0.6276,-0.6309,-0.6308,-0.6344,-0.6372,-0.6414,-0.6446,-0.6482,-0.6534,-0.6577,-0.6605,-0.6649,-0.6674,-0.6676,-0.6685,-0.6683,-0.6688,-0.6631,-0.6619,-0.6682,-0.6682,-0.6682,-0.6682,-0.6682,-0.6682,-0.621,-0.6263,-0.6275,-0.6341,-0.6363,-0.6411,-0.6432,-0.646,-0.6486,-0.6543,-0.6579,-0.6597,-0.6628,-0.6674,-0.6713,-0.672,-0.6736,-0.6745,-0.6752,-0.6699,-0.6692,-0.6686,-0.6674,-0.6748,-0.6749,-0.6806,-0.6806,-0.6807]},{"header":{"parameterUnit":"m.s-1","parameterCategory":1,"la1":30.2991,"la2":30.254,"lo1":-89.0895,"lo2":-89.0444,"dy":0.0017,"dx":0.0017,"nx":28,"ny":28,"refTime":"2025-12-05T09:00:00:Z","depth":0,"parameterNumber":3,"parameterNumberName":"V-component_of_WINDS"},"data":[0,0,0,0,0,0,0,0,0,0,0,0,0,0,0,0,0,0,0,0,0,0,0,0,0,0,0,0,0,0,0,0,0,0,0,0,0,0,0,0,0,0,0,0,0,0,0,0,0,0,0,0,0,0,0,0,0,0,-1.7599,-1.76,0,-1.7642,-1.7643,-1.7643,-1.7633,-1.7632,-1.7631,-1.7631,-1.7673,-1.7674,-1.7676,0,0,0,0,0,0,0,0,0,0,0,0,0,-1.7505,-1.7507,-1.7599,-1.76,-1.76,-1.7642,-1.7643,-1.7644,-1.7633,-1.7632,-1.7631,-1.763,-1.7672,-1.7674,-1.7676,0,0,0,0,0,0,0,0,0,0,0,0,0,-1.7547,-1.7508,-1.7599,-1.76,-1.7601,-1.7642,-1.7643,-1.7644,-1.7633,-1.7632,-1.7631,-1.763,-1.7671,-1.7674,-1.7677,-1.7719,0,0,-1.7685,-1.7687,0,0,0,0,0,0,0,0,-1.7545,-1.755,-1.76,-1.76,-1.7601,-1.7631,-1.7625,-1.7669,-1.7634,-1.7621,-1.7631,-1.7629,-1.766,-1.7663,-1.7674,-1.7721,-1.7723,-1.7686,-1.7687,-1.7689,-1.7689,0,0,0,0,0,0,0,-1.7542,-1.7548,-1.7616,-1.76,-1.7601,-1.7598,-1.7602,-1.7633,-1.7647,-1.7622,-1.7621,-1.7627,-1.766,-1.7671,-1.7675,-1.7723,-1.7686,-1.7688,-1.769,-1.7691,-1.7806,-1.7808,0,0,0,0,0,0,-1.7539,-1.7546,-1.7615,-1.7618,-1.7569,-1.76,-1.7606,-1.7623,-1.7646,-1.7649,-1.7628,-1.7626,-1.7667,-1.7672,-1.7676,-1.7727,-1.7689,-1.7691,-1.7693,-1.7805,-1.7807,-1.7808,0,0,0,0,0,0,-1.7537,-1.7545,-1.7613,-1.7582,-1.759,-1.7603,-1.7623,-1.7624,-1.7636,-1.7651,-1.7653,-1.7637,-1.7666,-1.7672,-1.7708,-1.7728,-1.7692,-1.7695,-1.7803,-1.7805,-1.7807,-1.7829,0,0,0,0,0,0,-1.7534,-1.7544,-1.7561,-1.7582,-1.7592,-1.7645,-1.7624,-1.7626,-1.7641,-1.7639,-1.766,-1.7663,-1.7666,-1.7704,-1.7711,-1.7732,-1.7697,-1.7802,-1.7804,-1.7807,-1.7827,-1.7832,-1.7836,0,0,0,0,0,-1.7531,-1.7565,-1.7562,-1.757,-1.7613,-1.7647,-1.7652,-1.7656,-1.7643,-1.7659,-1.7669,-1.7662,-1.7725,-1.7708,-1.7716,-1.7737,-1.78,-1.7804,-1.7806,-1.7825,-1.7831,-1.7836,0,0,0,0,0,0,-1.7545,-1.7568,-1.7565,-1.7607,-1.7625,-1.7645,-1.7666,-1.7662,-1.7684,-1.7681,-1.7684,-1.7689,-1.7726,-1.7735,-1.7716,-1.7779,-1.7761,-1.7766,-1.7772,-1.7778,-1.7782,-1.7779,-1.77,0,0,0,0,0,-1.7553,-1.7579,-1.7597,-1.7633,-1.7642,-1.7652,-1.7667,-1.7668,-1.7687,-1.7694,-1.7706,-1.7724,-1.7747,-1.7763,-1.7786,-1.7828,-1.7832,-1.7846,-1.7851,-1.7855,-1.7859,-1.7881,-1.7888,-1.7818,-1.7818,-1.7818,0,0,-1.757,-1.7586,-1.7602,-1.7636,-1.765,-1.7676,-1.7659,-1.7687,-1.7706,-1.7698,-1.7733,-1.7743,-1.7762,-1.7801,-1.7819,-1.781,-1.7879,-1.7859,-1.7862,-1.7864,-1.7885,-1.7892,-1.7898,-1.782,-1.782,-1.782,0,0,-1.7614,-1.7629,-1.766,-1.7675,-1.7697,-1.7703,-1.7711,-1.7731,-1.7737,-1.7773,-1.7767,-1.7789,-1.783,-1.7845,-1.7857,-1.7907,-1.7901,-1.7914,-1.7938,-1.796,-1.7965,-1.797,-1.7988,-1.7994,-1.7918,-1.7918,-1.7918,0,-1.7632,-1.7672,-1.7676,-1.7706,-1.772,-1.7715,-1.7746,-1.776,-1.7788,-1.7798,-1.7788,-1.7839,-1.7852,-1.7894,-1.7906,-1.7916,-1.7924,-1.7911,-1.7964,-1.7969,-1.7974,-1.799,-1.7997,-1.7919,-1.7919,-1.7919,-1.7919,0,-1.7693,-1.7721,-1.7743,-1.7771,-1.7789,-1.7818,-1.7826,-1.7843,-1.7843,-1.7851,-1.7886,-1.7901,-1.7927,-1.7937,-1.7937,-1.7979,-1.7973,-1.7964,-1.7945,-1.7982,-1.7998,-1.8004,-1.7921,-1.7921,-1.792,-1.792,0,0,-1.7748,-1.7778,-1.7786,-1.7799,-1.7822,-1.7843,-1.7872,-1.7898,-1.7912,-1.7932,-1.7956,-1.799,-1.7982,-1.7996,-1.7997,-1.8017,-1.8054,-1.8005,-1.8005,-1.8013,-1.8102,-1.8109,-1.8116,-1.8051,-1.8052,-1.8053,-1.81,0,-1.7794,-1.7847,-1.7851,-1.7898,-1.7923,-1.7919,-1.7944,-1.7961,-1.7968,-1.799,-1.7998,-1.8023,-1.801,-1.8018,-1.8037,-1.8046,-1.8072,-1.8043,-1.8073,-1.8074,-1.8068,-1.8124,-1.8132,-1.8175,-1.8106,-1.8107,-1.8108,0,-1.7855,-1.7877,-1.7927,-1.7947,-1.7958,-1.7981,-1.8004,-1.8026,-1.8044,-1.8048,-1.8064,-1.8063,-1.8092,-1.8072,-1.8112,-1.8092,-1.8104,-1.811,-1.8112,-1.8115,-1.8093,-1.8128,-1.8189,-1.8196,-1.8118,-1.8117,-1.8116,0,-1.789,-1.7932,-1.7967,-1.7978,-1.8002,-1.8018,-1.8029,-1.8046,-1.8061,-1.8082,-1.8091,-1.8115,-1.8127,-1.8145,-1.815,-1.8135,-1.8189,-1.817,-1.8193,-1.8193,-1.8205,-1.8204,-1.8268,-1.8213,-1.8213,-1.8212,-1.8212,0,-1.7941,-1.7972,-1.7983,-1.8005,-1.8038,-1.8043,-1.8076,-1.8085,-1.8101,-1.8123,-1.812,-1.8141,-1.8146,-1.8168,-1.8171,-1.8204,-1.8209,-1.8213,-1.8214,-1.8213,-1.8213,-1.8222,-1.8219,-1.8214,-1.8214,-1.8213,-1.8213,0,-1.7986,-1.7995,-1.8033,-1.8053,-1.8058,-1.8082,-1.8099,-1.8119,-1.8126,-1.8155,-1.8162,-1.8173,-1.8198,-1.8204,-1.8235,-1.8237,-1.8275,-1.8273,-1.8269,-1.8269,-1.8291,-1.8289,-1.8364,-1.8373,-1.8312,-1.8312,-1.8313,0,-1.8018,-1.8042,-1.8064,-1.808,-1.8091,-1.8116,-1.8132,-1.8136,-1.8153,-1.8175,-1.8193,-1.8218,-1.8239,-1.8279,-1.8289,-1.8312,-1.8311,-1.8335,-1.8314,-1.8313,-1.8311,-1.8309,-1.8312,-1.8339,-1.834,-1.834,-1.8341,0,-1.8074,-1.8077,-1.8101,-1.8125,-1.8144,-1.8164,-1.8182,-1.8194,-1.8202,-1.822,-1.8246,-1.8262,-1.8294,-1.8318,-1.8342,-1.8351,-1.8347,-1.8347,-1.8354,-1.8354,-1.8351,-1.8353,-1.828,-1.8346,-1.8345,-1.8345,-1.8344,-1.8344,-1.8114,-1.8134,-1.8153,-1.8179,-1.8194,-1.8211,-1.8231,-1.8241,-1.8263,-1.829,-1.8291,-1.832,-1.8337,-1.8368,-1.8379,-1.8401,-1.8393,-1.8403,-1.8405,-1.8407,-1.8409,-1.8347,-1.8405,-1.8405,-1.8405,-1.8404,-1.8404,0,-1.817,-1.8182,-1.8205,-1.8232,-1.8252,-1.8247,-1.8267,-1.8284,-1.8309,-1.8326,-1.8347,-1.8377,-1.8401,-1.8413,-1.8436,-1.8452,-1.845,-1.8458,-1.8456,-1.8459,-1.8415,-1.8407,-1.8458,-1.8458,-1.8458,-1.8458,-1.8458,-1.8458,-1.8201,-1.8236,-1.8241,-1.8282,-1.8294,-1.8323,-1.8335,-1.835,-1.8364,-1.8398,-1.8418,-1.8426,-1.8441,-1.8466,-1.8487,-1.849,-1.8499,-1.8507,-1.8509,-1.8467,-1.8462,-1.8457,-1.8449,-1.8509,-1.8509,-1.8551,-1.8552,-1.8552]}]]